[[{"header":{"parameterUnit":"m.s-1","parameterCategory":1,"la1":30.2992,"la2":30.254,"lo1":-89.0895,"lo2":-89.0443,"dy":0.0025,"dx":0.0025,"nx":19,"ny":19,"refTime":"2026-05-03T09:00:00:Z","depth":0,"parameterNumber":2,"parameterNumberName":"U-component_of_WINDS"},"data":[0,0,0,-0.1287,-0.1284,-0.1164,-0.1163,-0.1022,-0.1021,0,0,0,0,0,0,0,0,0,0,0,-0.1332,-0.1331,-0.1287,-0.1284,-0.1164,-0.1163,-0.1022,-0.1021,0,0,0,0,0,0,0,0,0,0,0,-0.1332,-0.1332,-0.1331,-0.1284,-0.1164,-0.1163,-0.1022,-0.1108,0,0,0,0,0,0,0,0,0,0,-0.1223,-0.1275,-0.1332,-0.1331,-0.1283,-0.1164,-0.1163,-0.1112,-0.1103,-0.1083,0,-0.1069,0,-0.1043,-0.1012,-0.1012,0,0,0,-0.1276,-0.1283,-0.1241,-0.1331,-0.1282,-0.1164,-0.1216,-0.1107,-0.1096,-0.107,-0.1067,-0.1061,-0.104,-0.1011,-0.1011,-0.0923,-0.0923,0,0,-0.1283,-0.1315,-0.1249,-0.1235,-0.1257,-0.122,-0.1212,-0.11,-0.1098,-0.1066,-0.1057,-0.1038,-0.1011,-0.101,-0.0923,-0.0923,0,0,0,-0.1307,-0.132,-0.1281,-0.1241,-0.1219,-0.1216,-0.1208,-0.1102,-0.1087,-0.1056,-0.1036,-0.101,-0.1008,-0.0923,-0.0923,-0.0953,0,0,0,-0.1311,-0.1334,-0.1285,-0.1303,-0.1221,-0.116,-0.1213,-0.1095,-0.1081,-0.1037,-0.101,-0.1007,-0.0923,-0.0923,-0.0952,-0.0961,0,0,0,-0.1336,-0.1337,-0.1323,-0.1305,-0.1255,-0.1161,-0.1139,-0.1091,-0.107,-0.1012,-0.1007,-0.0923,-0.0923,-0.0951,-0.096,-0.0947,0,0,0,-0.1373,-0.1351,-0.1324,-0.1292,-0.1256,-0.1181,-0.1139,-0.1081,-0.1034,-0.1009,-0.0923,-0.0923,-0.0951,-0.0959,-0.0947,-0.0943,-0.0945,0,0,-0.1363,-0.1351,-0.1329,-0.1302,-0.124,-0.1196,-0.1137,-0.1063,-0.1027,-0.096,-0.0957,-0.0952,-0.096,-0.0947,-0.0941,-0.0943,0,0,0,-0.1337,-0.1322,-0.1298,-0.1256,-0.12,-0.1152,-0.1085,-0.1057,-0.0998,-0.1,-0.0943,-0.0947,-0.0938,-0.0935,-0.0936,-0.0926,-0.0923,-0.0923,-0.0923,-0.1369,-0.1326,-0.1287,-0.1228,-0.1188,-0.1118,-0.108,-0.1031,-0.0998,-0.0985,-0.0965,-0.0967,-0.0964,-0.0964,-0.0955,-0.0959,-0.0959,-0.0959,-0.0959,-0.1351,-0.1323,-0.1279,-0.1226,-0.1179,-0.1133,-0.1064,-0.1042,-0.0991,-0.0978,-0.0968,-0.0958,-0.0967,-0.0956,-0.0961,-0.0961,-0.096,-0.096,-0.096,-0.1367,-0.1346,-0.1314,-0.1248,-0.1202,-0.1142,-0.1096,-0.1054,-0.1014,-0.1005,-0.0978,-0.0977,-0.0971,-0.0995,-0.0995,-0.0995,-0.0995,-0.0995,-0.0995,-0.1398,-0.136,-0.1327,-0.1265,-0.1232,-0.1183,-0.1112,-0.1078,-0.1029,-0.1002,-0.1002,-0.097,-0.0977,-0.098,-0.0995,-0.0995,-0.0995,-0.0995,-0.0995,-0.1395,-0.1389,-0.1338,-0.1306,-0.1229,-0.1185,-0.1132,-0.1066,-0.1032,-0.101,-0.0979,-0.0991,-0.0975,-0.0974,-0.0976,-0.0989,-0.0989,-0.0989,-0.0989,-0.141,-0.1398,-0.1336,-0.1286,-0.1232,-0.1179,-0.112,-0.1064,-0.1004,-0.098,-0.0972,-0.097,-0.0971,-0.0955,-0.0954,-0.0955,-0.0962,-0.0962,-0.0962,-0.1405,-0.1386,-0.1346,-0.1289,-0.1225,-0.1171,-0.1115,-0.1057,-0.0988,-0.096,-0.0959,-0.0961,-0.0958,-0.096,-0.0933,-0.0932,-0.0933,0,0]},{"header":{"parameterUnit":"m.s-1","parameterCategory":1,"la1":30.2992,"la2":30.254,"lo1":-89.0895,"lo2":-89.0443,"dy":0.0025,"dx":0.0025,"nx":19,"ny":19,"refTime":"2026-05-03T09:00:00:Z","depth":0,"parameterNumber":3,"parameterNumberName":"V-component_of_WINDS"},"data":[0,0,0,-0.711,-0.7109,-0.7086,-0.7086,-0.7042,-0.7041,0,0,0,0,0,0,0,0,0,0,0,-0.7108,-0.7107,-0.711,-0.7109,-0.7086,-0.7086,-0.7042,-0.7041,0,0,0,0,0,0,0,0,0,0,0,-0.7108,-0.7108,-0.7107,-0.7109,-0.7086,-0.7086,-0.7042,-0.7065,0,0,0,0,0,0,0,0,0,0,-0.709,-0.7079,-0.7108,-0.7107,-0.7109,-0.7086,-0.7086,-0.7066,-0.7063,-0.7046,0,-0.7029,0,-0.7034,-0.7038,-0.7037,0,0,0,-0.7115,-0.7081,-0.7083,-0.7107,-0.7109,-0.7086,-0.7098,-0.7065,-0.7062,-0.7043,-0.7028,-0.7027,-0.7034,-0.7037,-0.7037,-0.692,-0.6919,0,0,-0.7117,-0.7099,-0.7085,-0.7081,-0.7084,-0.7099,-0.7098,-0.7063,-0.7046,-0.7028,-0.7026,-0.7033,-0.7037,-0.7036,-0.6921,-0.692,0,0,0,-0.7116,-0.7099,-0.7103,-0.7082,-0.7079,-0.7098,-0.7097,-0.7048,-0.705,-0.7026,-0.7033,-0.7036,-0.7036,-0.6922,-0.692,-0.6863,0,0,0,-0.7117,-0.7099,-0.7103,-0.7091,-0.708,-0.7063,-0.7082,-0.7053,-0.7049,-0.7033,-0.7036,-0.7035,-0.6923,-0.6921,-0.6867,-0.6839,0,0,0,-0.7112,-0.7099,-0.7093,-0.7091,-0.708,-0.7064,-0.7065,-0.7052,-0.7053,-0.7037,-0.7035,-0.6923,-0.6921,-0.687,-0.6844,-0.6805,0,0,0,-0.7102,-0.704,-0.7091,-0.7025,-0.708,-0.7029,-0.7066,-0.7028,-0.7007,-0.7036,-0.6923,-0.6921,-0.6871,-0.6847,-0.6808,-0.6769,-0.6751,0,0,-0.7014,-0.7028,-0.6991,-0.7036,-0.6972,-0.7034,-0.6961,-0.6958,-0.6972,-0.6936,-0.6934,-0.6866,-0.6845,-0.6805,-0.6652,-0.6638,0,0,0,-0.6957,-0.693,-0.6916,-0.6897,-0.6895,-0.6891,-0.6902,-0.6901,-0.6873,-0.695,-0.684,-0.6828,-0.6806,-0.6788,-0.6776,-0.6759,-0.6911,-0.6911,-0.6912,-0.6805,-0.6829,-0.6769,-0.679,-0.6771,-0.6784,-0.6771,-0.6773,-0.6799,-0.6773,-0.6763,-0.6668,-0.6646,-0.6637,-0.6619,-0.6743,-0.6743,-0.6743,-0.6743,-0.6679,-0.6646,-0.6686,-0.6643,-0.6668,-0.6631,-0.6642,-0.6663,-0.6633,-0.6677,-0.6658,-0.6705,-0.662,-0.6606,-0.6739,-0.6739,-0.674,-0.674,-0.6741,-0.6584,-0.6572,-0.6574,-0.655,-0.6529,-0.6553,-0.6523,-0.6546,-0.6567,-0.6549,-0.6542,-0.6543,-0.6549,-0.6544,-0.6544,-0.6544,-0.6543,-0.6543,-0.6543,-0.6485,-0.6489,-0.6461,-0.6456,-0.6448,-0.644,-0.6455,-0.6447,-0.6445,-0.6465,-0.6465,-0.6496,-0.6607,-0.6636,-0.6538,-0.6539,-0.6539,-0.654,-0.654,-0.635,-0.6385,-0.6343,-0.6335,-0.6332,-0.6311,-0.6342,-0.6325,-0.6323,-0.6308,-0.6343,-0.6421,-0.6438,-0.6448,-0.6472,-0.6337,-0.6337,-0.6337,-0.6337,-0.627,-0.6282,-0.6245,-0.6232,-0.6222,-0.6246,-0.6199,-0.621,-0.6226,-0.6226,-0.6249,-0.6282,-0.6292,-0.6303,-0.6316,-0.6339,-0.6173,-0.6173,-0.6173,-0.619,-0.6202,-0.6157,-0.6175,-0.6175,-0.6175,-0.6132,-0.6115,-0.614,-0.6167,-0.6228,-0.6234,-0.6288,-0.6304,-0.6332,-0.6352,-0.6394,0,0]}]]